Weather History for Monett, MO

Change the Weather History Date:

Tuesday, October 9, 2012

  Actual Average (KJLN) Record (KJLN)
Temperature  
Mean Temperature 53 °F 62 °F  
Max Temperature 64 °F 73 °F 92 °F (1963)
Min Temperature 42 °F 50 °F 24 °F (2000)
Degree Days  
Heating Degree Days 12 5  
Month to date heating degree days 41  
Since 1 July heating degree days 83  
Cooling Degree Days 0 2  
Month to date cooling degree days 23  
Year to date cooling degree days 1665  
Growing Degree Days 3 (Base 50)    
Moisture  
Dew Point 45 °F    
Average Humidity 75    
Maximum Humidity 100    
Minimum Humidity 52    
Precipitation  
Precipitation 0.00 in 0.13 in 3.67 in (2001)
Month to date precipitation 1.20  
Year to date precipitation 37.12  
Sea Level Pressure  
Sea Level Pressure 29.99 in    
Wind  
Wind Speed 9 mph (SSW)    
Max Wind Speed 17 mph    
Max Gust Speed 23 mph    
Visibility 10 miles    
Events      
T = Trace of Precipitation, MM = Missing Value Source: NWS Daily Summary

Daily Weather History Graph

Daily Weather History Graph

Search for Another Location

Airport:

Trip Planner

Search our weather history database for the weather conditions in past years. The results will help you decide how hot, cold, wet, or windy it might be!

Date:

Astronomy

Oct. 09, 2012 Rise Set
Actual Time 7:18 AM CDT 6:47 PM CDT
Civil Twilight 6:52 AM CDT 7:12 PM CDT
Nautical Twilight 6:22 AM CDT 7:42 PM CDT
Astronomical Twilight 5:52 AM CDT 8:13 PM CDT
Moon 1:04 AM CDT (10/9) 3:07 PM CDT (10/9)
Length of Visible Light 12h 20m
Length of Day
11h 28m
Last Quarter, 36% of the Moon is Illuminated
Oct 9
Last Quarter
Oct 15
New
Oct 21
First Quarter
Oct 29
Full
Nov 6
Last Quarter

Hourly Weather History & Observations

Time (CDT) Temp. Windchill Dew Point Humidity Pressure Visibility Wind Dir Wind Speed Gust Speed Precip Events Conditions
12:15 AM 42.8 °F 39.3 °F 37.4 °F 81% 30.05 in 10.0 mi SSE 5.8 mph - N/A   Clear
12:55 AM 42.8 °F 38.6 °F 37.4 °F 81% 30.05 in 10.0 mi SSE 6.9 mph - N/A   Clear
1:15 AM 42.8 °F 38.6 °F 37.4 °F 81% 30.05 in 10.0 mi SSE 6.9 mph - N/A   Clear
1:55 AM 42.8 °F 38.6 °F 37.4 °F 81% 30.05 in 10.0 mi South 6.9 mph - N/A   Clear
2:55 AM 42.8 °F 38.0 °F 37.4 °F 81% 30.03 in 10.0 mi South 8.1 mph - N/A   Clear
3:15 AM 42.8 °F 37.0 °F 37.4 °F 81% 30.02 in 10.0 mi South 10.4 mph - N/A   Clear
3:35 AM 44.6 °F 40.2 °F 37.4 °F 76% 30.02 in 10.0 mi South 8.1 mph - N/A   Clear
3:55 AM 44.6 °F 39.2 °F 37.4 °F 76% 30.02 in 10.0 mi South 10.4 mph - N/A   Clear
4:15 AM 44.6 °F 39.2 °F 37.4 °F 76% 30.01 in 10.0 mi South 10.4 mph - N/A   Clear
4:35 AM 44.6 °F 38.4 °F 37.4 °F 76% 30.01 in 10.0 mi South 12.7 mph - N/A   Clear
4:55 AM 44.6 °F 39.2 °F 37.4 °F 76% 30.01 in 10.0 mi South 10.4 mph - N/A   Clear
5:15 AM 44.6 °F 38.8 °F 37.4 °F 76% 30.00 in 10.0 mi South 11.5 mph - N/A   Clear
5:35 AM 44.6 °F 39.7 °F 37.4 °F 76% 30.00 in 10.0 mi South 9.2 mph - N/A   Clear
5:55 AM 44.6 °F 40.2 °F 37.4 °F 76% 30.00 in 10.0 mi South 8.1 mph - N/A   Clear
6:15 AM 42.8 °F 38.0 °F 37.4 °F 81% 30.00 in 10.0 mi SSE 8.1 mph - N/A   Clear
6:55 AM 42.8 °F 37.5 °F 39.2 °F 87% 30.01 in 10.0 mi SSE 9.2 mph - N/A   Clear
7:15 AM 42.8 °F 38.0 °F 37.4 °F 81% 30.00 in 10.0 mi SSE 8.1 mph - N/A   Clear
7:35 AM 42.8 °F 38.0 °F 37.4 °F 81% 30.01 in 10.0 mi SSE 8.1 mph - N/A   Clear
7:55 AM 44.6 °F 40.2 °F 39.2 °F 81% 30.00 in 10.0 mi SSE 8.1 mph - N/A   Clear
8:15 AM 44.6 °F 39.7 °F 39.2 °F 81% 30.01 in 10.0 mi SSE 9.2 mph - N/A   Clear
8:35 AM 48.2 °F - 41.0 °F 76% 30.01 in 10.0 mi SSE 9.2 mph - N/A   Clear
8:55 AM 50.0 °F - 41.0 °F 71% 30.00 in 10.0 mi SSE 11.5 mph - N/A   Clear
9:15 AM 51.8 °F - 41.0 °F 67% 30.00 in 10.0 mi South 11.5 mph - N/A   Clear
9:35 AM 53.6 °F - 42.8 °F 67% 30.00 in 10.0 mi South 10.4 mph - N/A   Clear
9:55 AM 55.4 °F - 42.8 °F 63% 30.00 in 10.0 mi South 12.7 mph 18.4 mph N/A   Clear
10:15 AM 55.4 °F - 42.8 °F 63% 30.00 in 10.0 mi South 11.5 mph 18.4 mph N/A   Clear
10:35 AM 59.0 °F - 42.8 °F 55% 30.00 in 10.0 mi South 12.7 mph - N/A   Clear
10:55 AM 59.0 °F - 44.6 °F 59% 29.99 in 10.0 mi South 12.7 mph 18.4 mph N/A   Clear
11:15 AM 59.0 °F - 44.6 °F 59% 29.98 in 10.0 mi SSW 15.0 mph - N/A   Clear
11:35 AM 60.8 °F - 44.6 °F 55% 29.97 in 10.0 mi SSW 13.8 mph 17.3 mph N/A   Clear
11:55 AM 60.8 °F - 44.6 °F 55% 29.96 in 10.0 mi South 16.1 mph - N/A   Clear
12:15 PM 62.6 °F - 44.6 °F 52% 29.96 in 10.0 mi South 17.3 mph 20.7 mph N/A   Clear
12:35 PM 62.6 °F - 46.4 °F 55% 29.95 in 10.0 mi South 12.7 mph 19.6 mph N/A   Scattered Clouds
12:55 PM 64.4 °F - 46.4 °F 52% 29.93 in 10.0 mi SSW 11.5 mph 21.9 mph N/A   Scattered Clouds
1:15 PM 62.6 °F - 46.4 °F 55% 29.93 in 10.0 mi South 12.7 mph 23.0 mph N/A   Mostly Cloudy
1:35 PM 64.4 °F - 48.2 °F 56% 29.92 in 10.0 mi SSW 15.0 mph 20.7 mph N/A   Overcast
1:55 PM 62.6 °F - 46.4 °F 55% 29.92 in 10.0 mi South 15.0 mph - N/A   Overcast
2:15 PM 62.6 °F - 48.2 °F 59% 29.92 in 10.0 mi South 13.8 mph 17.3 mph N/A   Overcast
2:35 PM 60.8 °F - 48.2 °F 63% 29.92 in 10.0 mi South 12.7 mph 17.3 mph N/A   Overcast
2:55 PM 60.8 °F - 48.2 °F 63% 29.92 in 10.0 mi South 8.1 mph - N/A   Overcast
3:15 PM 60.8 °F - 48.2 °F 63% 29.92 in 10.0 mi SSW 9.2 mph - N/A   Overcast
3:35 PM 60.8 °F - 48.2 °F 63% 29.93 in 10.0 mi South 8.1 mph - N/A   Overcast
3:55 PM 60.8 °F - 50.0 °F 68% 29.92 in 10.0 mi South 6.9 mph - N/A   Overcast
4:15 PM 60.8 °F - 50.0 °F 68% 29.92 in 10.0 mi South 5.8 mph - N/A   Overcast
4:35 PM 60.8 °F - 50.0 °F 68% 29.92 in 10.0 mi South 8.1 mph - N/A   Overcast
4:55 PM 60.8 °F - 50.0 °F 68% 29.92 in 10.0 mi SSW 12.7 mph - N/A   Overcast
5:15 PM 59.0 °F - 50.0 °F 72% 29.93 in 10.0 mi SW 9.2 mph - N/A   Overcast
5:35 PM 59.0 °F - 51.8 °F 77% 29.93 in 10.0 mi WSW 9.2 mph - N/A   Overcast
6:15 PM 57.2 °F - 51.8 °F 82% 29.95 in 10.0 mi West 5.8 mph - N/A   Overcast
6:35 PM 55.4 °F - 51.8 °F 88% 29.96 in 10.0 mi WSW 4.6 mph - N/A   Overcast
6:55 PM 55.4 °F - 51.8 °F 88% 29.96 in 10.0 mi SW 4.6 mph - N/A   Overcast
7:15 PM 55.4 °F - 51.8 °F 88% 29.97 in 10.0 mi WSW 3.5 mph - N/A   Overcast
7:35 PM 55.4 °F - 51.8 °F 88% 29.97 in 10.0 mi Calm Calm - N/A   Overcast
7:55 PM 55.4 °F - 51.8 °F 88% 29.98 in 10.0 mi WSW 5.8 mph - N/A   Overcast
8:15 PM 55.4 °F - 51.8 °F 88% 30.00 in 10.0 mi Calm Calm - N/A   Overcast
8:35 PM 55.4 °F - 51.8 °F 88% 30.00 in 10.0 mi West 3.5 mph - N/A   Overcast
8:55 PM 55.4 °F - 53.6 °F 94% 30.01 in 10.0 mi West 4.6 mph - N/A   Overcast
9:15 PM 55.4 °F - 53.6 °F 94% 30.02 in 10.0 mi West 4.6 mph - N/A   Overcast
9:35 PM 55.4 °F - 53.6 °F 94% 30.02 in 10.0 mi Calm Calm - N/A   Overcast
9:55 PM 55.4 °F - 53.6 °F 94% 30.03 in 10.0 mi West 3.5 mph - N/A   Overcast
10:15 PM 55.4 °F - 53.6 °F 94% 30.04 in 10.0 mi NW 3.5 mph - N/A   Overcast
10:35 PM 55.4 °F - 53.6 °F 94% 30.05 in 10.0 mi NW 3.5 mph - N/A   Overcast
10:55 PM 55.4 °F - 53.6 °F 94% 30.06 in 10.0 mi NW 4.6 mph - N/A   Overcast
11:15 PM 53.6 °F - 53.6 °F 100% 30.07 in 10.0 mi WNW 4.6 mph - N/A   Overcast
11:35 PM 53.6 °F - 53.6 °F 100% 30.08 in 10.0 mi WNW 4.6 mph - N/A   Overcast
11:55 PM 55.4 °F - 53.6 °F 94% 30.08 in 10.0 mi NW 9.2 mph - N/A   Overcast